BEIDOU-3 IGSO-2 (C39)

Last updated on Aug. 8, 2020, 5:33 a.m. UTC

1 44337U 19035A   20220.59486134 -.00000114  00000-0  00000-0 0  9992
2 44337  55.0739 177.8391 0014262 190.0681 270.8140  1.00274881  4241
UTC
Height (km)
Latitude
Longitude
Inclination
Orbital Period
UTC large
Height (km)
Speed (km/s)
/
Latitude / Longitude
Inclination (degrees)
Orbital Period (minutes)
Azimuth
Elevation
Range (km)
Doppler Factor
iOS Compass Heading
iOS Angle

Next 30 passes for location: Hong Kong

Rise time Rise Azimuth (degrees) Set time Set Azimuth (degrees) Duration Max altitude (degrees)

No matching passes for this satellites